Location: Samoth
(37.3328°N, 88.7876°W)
Time: 20:52:04
(UTC+00:00)

BlueWalker 3 - Visible Passes

Search period start: 28 November 2022 00:00
Search period end: 08 December 2022 00:00
Orbit: 500 x 519 km, 53.2° (Epoch: 28 November)

Date Brightness Start Highest point End Pass type
(mag) Time Alt. Az. Time Alt. Az. Time Alt. Az.
28 Nov 4.4 23:31:59 10° NW 23:33:57 13° NNW 23:35:55 10° N visible
29 Nov 4.4 23:13:48 10° NW 23:15:38 13° NNW 23:17:29 10° N visible
06 Dec 4.7 00:43:17 10° NNW 00:43:21 10° NNW 00:43:21 10° NNW visible
07 Dec 4.2 00:24:50 10° NNW 00:25:53 14° N 00:25:53 14° N visible
